Location: Newark
(39.1981°N, 120.2353°W)
Time: 04:06:04
(UTC+00:00)

Tiangong 2 - Visible Passes

Search period start: 19 July 2019 00:00
Search period end: 29 July 2019 00:00
Orbit: 185 x 377 km, 42.8° (Epoch: 18 July)

Date Brightness Start Highest point End Pass type
(mag) Time Alt. Az. Time Alt. Az. Time Alt. Az.
19 Jul 0.9 05:07:46 10° WNW 05:10:54 90° E 05:11:23 60° ESE visible
20 Jul 1.1 05:09:29 10° WNW 05:12:34 55° SSW 05:12:42 54° SSW visible
21 Jul 2.1 05:11:16 10° W 05:14:01 32° SW 05:14:01 32° SW visible
22 Jul 3.0 05:13:16 10° W 05:15:19 19° SW 05:15:19 19° SW visible
23 Jul 3.7 05:16:08 10° SW 05:16:38 11° SW 05:16:38 11° SW visible
26 Jul 3.7 03:45:35 10° WSW 03:46:46 12° SW 03:47:55 10° SSW visible
